Regional Weather Roundup
Issued by NWS

Home | Current Version | Previous Version | Text Only | Print | Product List | Glossary On
Versions: 1 2 3 4 5 6 7 8 9 10 11 12 13 14 15 16 17 18 19 20 21 22 23 24 25 26 27 28 29 30 31 32 33 34 35 36 37 38 39 40 41 42 43 44 45 46 47 48 49 50
000
ASUS45 KBOU 240910
RWRCO

WEATHER ROUNDUP FOR COLORADO
NATIONAL WEATHER SERVICE PUEBLO CO
300 AM MDT TUE APR 24 2018

NOTE: "FAIR" INDICATES FEW OR NO CLOUDS BELOW 12000 FEET WITH NO
SIGNIFICANT WEATHER AND/OR OBSTRUCTIONS TO VISIBILITY.

COZ001>005-013-030-031-241000-
...NORTHWEST COLORADO...

CITY           SKY/WX    TMP DP  RH WIND       PRES   REMARKS
CRAIG          MOCLDY    37  31  78 W9        30.27S
HAYDEN         CLOUDY    37  31  78 W9        30.27R
MEEKER         MOCLDY    40  30  67 W3        30.24S
RABBIT EARS PA NOT AVBL
STEAMBOAT SPGS FAIR      38  32  77 S3        30.24S
WALDEN         CLOUDY    32  27  80 NW9       30.29S WCI  24
$$

COZ006>008-011-241000-
...WEST CENTRAL VALLEYS...

CITY           SKY/WX    TMP DP  RH WIND       PRES   REMARKS
GRAND JUNCTION CLOUDY    60  29  30 N5        30.12F
MONTROSE       CLOUDY    56  33  42 N16       30.21R
EAGLE          CLOUDY    50  31  48 CALM      30.22S
RIFLE            N/A     53  31  42 NW6       30.17F
DELTA          NOT AVBL
NUCLA          FAIR      57  27  30 CALM      30.20S
$$

COZ017>023-064>068-241000-
...SOUTHWEST COLORADO...

CITY           SKY/WX    TMP DP  RH WIND       PRES   REMARKS
DURANGO        CLEAR     38  12  34 CALM      30.12F
CORTEZ         CLEAR     42  19  39 E3        30.12S
PAGOSA SPRINGS FAIR      37  14  38 NW3       30.19S
TELLURIDE      CLEAR     42  30  61 W7        30.30R
WOLF CREEK PAS NOT AVBL
$$

COZ009-010-012-014-032>034-037-058>063-241000-
...CENTRAL COLORADO...

CITY           SKY/WX    TMP DP  RH WIND       PRES   REMARKS
ASPEN          CLOUDY    41  36  82 SE10      30.26F
BUENA VISTA    FAIR      45  28  50 NW13      30.23S
COPPER MTN     NOT AVBL
BERTHOUD PASS  CLOUDY    23  12  63 W13G22    30.36F WCI  11
COTTONWOOD PAS CLEAR     43  30  61 NW6       30.30R
GUNNISON       PTCLDY    42  30  62 SW5       30.25S
KREMMLING      CLOUDY    46  32  57 N13       30.24S
LEADVILLE      LGT SNOW  32  30  92 N3        30.31S FOG
MONARCH PASS   CLEAR     30  23  74 SW21G28   30.46S WCI  17
SALIDA         FAIR      49  28  43 CALM      30.29R
SUNLIGHT       CLOUDY    32  27  80 W8        30.38R WCI  25
WILKERSON PASS HVY SNOW  30  30 100 NE9       30.36S VSB<1/4 WCI  22
$$

COZ069>075-241000-
...SAN LUIS VALLEY/SANGRE DE CRISTO MOUNTAINS...

CITY           SKY/WX    TMP DP  RH WIND       PRES   REMARKS
ALAMOSA        MOCLDY    39  21  48 NE7       30.18R
DEL NORTE      FAIR      40  17  38 W10       30.21S
LA VETA PASS   LGT SNOW  34  32  93 NE8       30.42S VSB 3/4 WCI  27
SAGUACHE       NOT AVBL
$$

COZ035-036-038>040-241000-
...NORTHERN COLORADO FRONT RANGE...

CITY           SKY/WX    TMP DP  RH WIND       PRES   REMARKS
DENVER INTL AP LGT SNOW  35  32  88 NE13      30.32R FOG     WCI  26
DMNS CITY PARK NOT AVBL
AURORA         NOT AVBL
FRONT RANGE AP CLOUDY    36  34  92 N14       30.33R
ERIE MUNI ARPT LGT RAIN  35  33  95 E6        30.37S WCI  30
BOULDER MUN AP LGT RAIN  34  34 100 CALM      30.32R
CENTENNIAL     CLOUDY    36  33  89 NE6       30.31F
BROOMFIELD     LGT RAIN  34  32  93 CALM      30.33R
LOVELAND       LGT RAIN  37  33  85 NE10      30.31R
LONGMONT       MIX PCPN  38  35  85 S3        30.34R
$$

COZ041-046-047-076>085-087-088-241000-
...PIKES PEAK/PALMER DIVIDE AND SOUTHERN FOOTHILLS...

CITY           SKY/WX    TMP DP  RH WIND       PRES   REMARKS
COLO. SPRINGS  CLOUDY    40  33  76 NW30G39   30.23R
A. F. ACADEMY  NOT AVBL
SCHRIEVER AFB  NOT AVBL
CHEYENNE MTN   NOT AVBL
ELLICOTT         N/A    N/A N/A N/A N31G47    30.18S
FALCON         CLOUDY    34  33  93 N29G39    30.22F WCI  21
FORT CARSON    PTCLDY    42  34  73 N35G47    30.17R
LIMON          CLOUDY    35  35 100 N23G33    30.26R WCI  23
MONUMENT HILL  CLOUDY    32  32 100 N14G20    30.31S FOG     WCI  22
CANON CITY     FAIR      50  41  71 S17G24    30.15R
WALSENBURG     CLOUDY    45  39  81 N13       30.23R
TRINIDAD       MOCLDY    46  39  76 NW21G30   30.17R
$$

COZ042>045-048>051-090-091-241000-
...NORTHEAST COLORADO...

CITY           SKY/WX    TMP DP  RH WIND       PRES   REMARKS
GREELEY ARPT   LGT RAIN  38  30  73 N18       30.32R
AKRON          CLOUDY    36  33  89 NW22      30.27R
BURLINGTON     HVY RAIN  43  42  97 N24G36    30.23R FOG
WRAY           CLOUDY    41  36  81 N24G33    30.24R
YUMA           NOT AVBL
STERLING       NOT AVBL
HOLYOKE        DRIZZLE   41  36  81 N24G30    30.25R
FORT MORGAN    FLURRIES  36  31  83 N22G28    30.31R
$$

COZ086-089-092>099-241000-
...SOUTHEAST COLORADO...

CITY           SKY/WX    TMP DP  RH WIND       PRES   REMARKS
PUEBLO         PTCLDY    47  37  68 N33G49    30.16R
LA JUNTA       PTCLDY    50  44  80 N26G38    30.09R
LAMAR          CLOUDY    53  42  66 E16       30.07R
SPRINGFIELD      N/A     47  42  83 S7        30.03F
$$





USA.gov is the U.S. government's official web portal to all federal, state and local government web resources and services.